WMT8NL LMML-LATI

Flight info

Callsign WMT8NL
Flight time 1h 12m
Altitude 38000
Route VESOD DCT INROF DCT PESAR DCT GOKEL DCT DITAN
Aircraft A21N/M-SDE1E2E3FGIJ1J4RWXY/LB1

Departure

Time 2026-04-28 20:46
Airport Malta International Airport (LMML)

Arrival

Time 2026-04-28 21:58
Airport Tirana International Airport Mother Teresa (LATI)
Time Latitude Longitude Altitude Speed Heading
2026-04-28 20:39 35.84864 14.49353 254 ft 10 kts 316°
2026-04-28 20:39 35.84916 14.49290 255 ft 10 kts 307°
2026-04-28 20:39 35.84936 14.49210 256 ft 8 kts 264°
2026-04-28 20:39 35.84932 14.49185 257 ft 1 kts 250°
2026-04-28 20:40 35.84930 14.49180 257 ft 0 kts 247°
2026-04-28 20:42 35.84929 14.49176 257 ft 2 kts 247°
2026-04-28 20:42 35.84920 14.49151 257 ft 4 kts 247°
2026-04-28 20:42 35.84920 14.49093 258 ft 9 kts 299°
2026-04-28 20:43 35.84960 14.49016 258 ft 11 kts 304°
2026-04-28 20:43 35.85011 14.48939 260 ft 11 kts 309°
2026-04-28 20:43 35.85071 14.48861 263 ft 19 kts 316°
2026-04-28 20:43 35.85161 14.48750 266 ft 17 kts 314°
2026-04-28 20:44 35.85246 14.48645 265 ft 15 kts 315°
2026-04-28 20:44 35.85261 14.48539 266 ft 7 kts 229°
2026-04-28 20:44 35.85222 14.48487 266 ft 8 kts 224°
2026-04-28 20:44 35.85165 14.48482 266 ft 9 kts 154°
2026-04-28 20:45 35.85126 14.48523 265 ft 5 kts 136°
2026-04-28 20:45 35.85026 14.48646 263 ft 55 kts 134°
2026-04-28 20:45 35.84570 14.49212 256 ft 130 kts 134°
2026-04-28 20:45 35.83792 14.50162 450 ft 172 kts 133°
2026-04-28 20:46 35.82940 14.51166 1260 ft 173 kts 139°
2026-04-28 20:46 35.81880 14.51825 2111 ft 177 kts 163°
2026-04-28 20:46 35.80757 14.51718 2782 ft 156 kts 207°
2026-04-28 20:46 35.79941 14.50869 2969 ft 155 kts 220°
2026-04-28 20:47 35.78971 14.50380 3085 ft 158 kts 160°
2026-04-28 20:47 35.78181 14.51251 3344 ft 167 kts 107°
2026-04-28 20:47 35.78194 14.52722 3679 ft 184 kts 65°
2026-04-28 20:47 35.78936 14.54074 4108 ft 199 kts 53°
2026-04-28 20:48 35.79790 14.55475 4503 ft 216 kts 53°
2026-04-28 20:48 35.80730 14.57041 4833 ft 238 kts 53°
2026-04-28 20:48 35.81742 14.58751 5283 ft 257 kts 53°
2026-04-28 20:48 35.82815 14.60585 5846 ft 271 kts 53°
2026-04-28 20:49 35.83921 14.62488 6613 ft 277 kts 52°
2026-04-28 20:49 35.85044 14.64421 7409 ft 282 kts 53°
2026-04-28 20:49 35.86201 14.66420 8202 ft 286 kts 53°
2026-04-28 20:49 35.87355 14.68416 8957 ft 291 kts 53°
2026-04-28 20:50 35.88583 14.70374 9688 ft 294 kts 48°
2026-04-28 20:50 35.89928 14.72326 10396 ft 300 kts 47°
2026-04-28 20:50 35.91311 14.74306 10890 ft 312 kts 47°
2026-04-28 20:50 35.92733 14.76357 11501 ft 319 kts 47°
2026-04-28 20:51 35.94182 14.78464 12197 ft 323 kts 47°
2026-04-28 20:51 35.95634 14.80591 12886 ft 327 kts 48°
2026-04-28 20:51 35.97082 14.82718 13555 ft 330 kts 48°
2026-04-28 20:51 35.98076 14.84182 14002 ft 332 kts 48°
2026-04-28 20:52 36.00067 14.87122 14835 ft 338 kts 47°
2026-04-28 20:52 36.01575 14.89352 15430 ft 342 kts 47°
2026-04-28 20:52 36.03096 14.91602 16010 ft 346 kts 47°
2026-04-28 20:52 36.04655 14.93911 16589 ft 350 kts 47°
2026-04-28 20:53 36.07790 14.98553 17706 ft 357 kts 47°
2026-04-28 20:53 36.09394 15.00933 18243 ft 361 kts 46°
2026-04-28 20:53 36.11005 15.03323 18747 ft 366 kts 46°
2026-04-28 20:54 36.12645 15.05754 19254 ft 370 kts 47°
2026-04-28 20:54 36.14291 15.08208 19805 ft 372 kts 47°
2026-04-28 20:54 36.15938 15.10672 20318 ft 375 kts 46°
2026-04-28 20:54 36.17604 15.13146 20770 ft 380 kts 47°
2026-04-28 20:55 36.19313 15.15680 21274 ft 382 kts 46°
2026-04-28 20:55 36.21012 15.18205 21756 ft 385 kts 47°
2026-04-28 20:55 36.22725 15.20759 22222 ft 388 kts 46°
2026-04-28 20:55 36.24452 15.23337 22675 ft 392 kts 47°
2026-04-28 20:56 36.26190 15.25934 23098 ft 395 kts 47°
2026-04-28 20:56 36.27944 15.28561 23543 ft 398 kts 46°
2026-04-28 20:56 36.29706 15.31201 23968 ft 402 kts 46°
2026-04-28 20:56 36.31504 15.33895 24341 ft 406 kts 46°
2026-04-28 20:57 36.33303 15.36597 24715 ft 411 kts 46°
2026-04-28 20:57 36.35127 15.39330 25092 ft 414 kts 45°
2026-04-28 20:57 36.36814 15.41861 25426 ft 418 kts 45°
2026-04-28 20:57 36.38660 15.44635 25823 ft 421 kts 45°
2026-04-28 20:58 36.40525 15.47439 26208 ft 424 kts 45°
2026-04-28 20:58 36.42417 15.50289 26562 ft 427 kts 45°
2026-04-28 20:58 36.44315 15.53143 26907 ft 431 kts 44°
2026-04-28 20:58 36.46201 15.55988 27297 ft 433 kts 44°
2026-04-28 20:59 36.48130 15.58901 27752 ft 433 kts 44°
2026-04-28 20:59 36.50047 15.61796 28138 ft 435 kts 44°
2026-04-28 20:59 36.51972 15.64704 28494 ft 438 kts 43°
2026-04-28 20:59 36.53909 15.67634 28825 ft 441 kts 44°
2026-04-28 21:00 36.55858 15.70584 29144 ft 444 kts 44°
2026-04-28 21:00 36.57825 15.73559 29437 ft 447 kts 44°
2026-04-28 21:00 36.59798 15.76552 29752 ft 450 kts 44°
2026-04-28 21:00 36.61766 15.79538 30069 ft 453 kts 44°
2026-04-28 21:01 36.63767 15.82579 30391 ft 455 kts 44°
2026-04-28 21:01 36.65778 15.85635 30672 ft 458 kts 44°
2026-04-28 21:01 36.67792 15.88700 30977 ft 461 kts 44°
2026-04-28 21:01 36.69830 15.91802 31228 ft 465 kts 44°
2026-04-28 21:02 36.71874 15.94916 31480 ft 468 kts 44°
2026-04-28 21:02 36.73940 15.98068 31759 ft 471 kts 44°
2026-04-28 21:02 36.76019 16.01244 32006 ft 475 kts 44°
2026-04-28 21:02 36.78110 16.04441 32209 ft 479 kts 44°
2026-04-28 21:03 36.80211 16.07665 32502 ft 481 kts 44°
2026-04-28 21:03 36.82319 16.10892 32739 ft 484 kts 44°
2026-04-28 21:03 36.84459 16.14176 32970 ft 487 kts 44°
2026-04-28 21:03 36.86593 16.17454 33189 ft 491 kts 44°
2026-04-28 21:04 36.88751 16.20767 33402 ft 495 kts 44°
2026-04-28 21:04 36.90926 16.24110 33612 ft 498 kts 44°
2026-04-28 21:04 36.93108 16.27473 33848 ft 501 kts 44°
2026-04-28 21:04 36.95314 16.30877 34062 ft 504 kts 44°
2026-04-28 21:05 36.97512 16.34271 34374 ft 505 kts 44°
2026-04-28 21:05 36.99722 16.37669 34705 ft 504 kts 43°
2026-04-28 21:05 37.02171 16.40709 35150 ft 489 kts 31°
2026-04-28 21:05 37.04910 16.43081 35671 ft 473 kts 21°
2026-04-28 21:06 37.07755 16.45056 36156 ft 467 kts 19°
2026-04-28 21:06 37.10634 16.46965 36572 ft 464 kts 19°
2026-04-28 21:06 37.13471 16.48843 36856 ft 464 kts 19°
2026-04-28 21:06 37.16316 16.50745 37112 ft 464 kts 20°
2026-04-28 21:07 37.19158 16.52666 37372 ft 464 kts 20°
2026-04-28 21:07 37.21058 16.53959 37556 ft 464 kts 20°
2026-04-28 21:07 37.24804 16.56524 37876 ft 464 kts 20°
2026-04-28 21:07 37.27624 16.58462 38072 ft 464 kts 21°
2026-04-28 21:08 37.33298 16.62373 38081 ft 464 kts 21°
2026-04-28 21:08 37.38943 16.66272 38080 ft 465 kts 21°
2026-04-28 21:09 37.44599 16.70188 38085 ft 465 kts 21°
2026-04-28 21:09 37.50266 16.74120 38081 ft 464 kts 21°
2026-04-28 21:10 37.55911 16.78040 38081 ft 463 kts 21°
2026-04-28 21:10 37.61518 16.81939 38083 ft 463 kts 22°
2026-04-28 21:11 37.67172 16.85882 38083 ft 462 kts 21°
2026-04-28 21:11 37.72768 16.89787 38090 ft 463 kts 21°
2026-04-28 21:12 37.78400 16.93725 38080 ft 462 kts 21°
2026-04-28 21:12 37.84013 16.97659 38084 ft 461 kts 22°
2026-04-28 21:13 37.89604 17.01584 38082 ft 461 kts 21°
2026-04-28 21:13 37.95201 17.05519 38080 ft 461 kts 22°
2026-04-28 21:14 38.00796 17.09459 38079 ft 460 kts 22°
2026-04-28 21:14 38.06370 17.13390 38078 ft 460 kts 22°
2026-04-28 21:15 38.11964 17.17344 38078 ft 460 kts 22°
2026-04-28 21:15 38.17537 17.21290 38078 ft 459 kts 22°
2026-04-28 21:16 38.23080 17.25228 38079 ft 459 kts 22°
2026-04-28 21:16 38.28628 17.29235 38075 ft 459 kts 22°
2026-04-28 21:17 38.34187 17.33264 38074 ft 458 kts 23°
2026-04-28 21:17 38.39680 17.37252 38073 ft 458 kts 23°
2026-04-28 21:18 38.45206 17.41270 38075 ft 457 kts 23°
2026-04-28 21:18 38.50734 17.45295 38077 ft 457 kts 22°
2026-04-28 21:19 38.56246 17.49312 38077 ft 456 kts 23°
2026-04-28 21:19 38.61748 17.53330 38078 ft 457 kts 23°
2026-04-28 21:20 38.67217 17.57480 38076 ft 457 kts 25°
2026-04-28 21:20 38.72614 17.61693 38078 ft 457 kts 25°
2026-04-28 21:21 38.78043 17.65928 38076 ft 456 kts 25°
2026-04-28 21:21 38.83450 17.70138 38075 ft 457 kts 25°
2026-04-28 21:22 38.88898 17.74389 38078 ft 457 kts 25°
2026-04-28 21:22 38.93417 17.77919 38080 ft 457 kts 25°
2026-04-28 21:23 38.99737 17.82861 38080 ft 456 kts 25°
2026-04-28 21:23 39.05111 17.87075 38082 ft 456 kts 26°
2026-04-28 21:24 39.10522 17.91324 38087 ft 456 kts 26°
2026-04-28 21:24 39.15122 17.94942 38089 ft 455 kts 26°
2026-04-28 21:25 39.19319 17.98248 38078 ft 454 kts 26°
2026-04-28 21:25 39.25584 18.03192 38080 ft 454 kts 26°
2026-04-28 21:26 39.30975 18.07455 38087 ft 454 kts 26°
2026-04-28 21:26 39.36356 18.11716 38096 ft 454 kts 26°
2026-04-28 21:27 39.41732 18.15987 38095 ft 453 kts 26°
2026-04-28 21:27 39.47090 18.20247 38088 ft 453 kts 26°
2026-04-28 21:28 39.52441 18.24510 38090 ft 453 kts 26°
2026-04-28 21:28 39.57794 18.28782 37988 ft 453 kts 26°
2026-04-28 21:29 39.60467 18.30917 38145 ft 453 kts 26°
2026-04-28 21:29 39.63147 18.33062 37915 ft 452 kts 26°
2026-04-28 21:29 39.65795 18.35181 38033 ft 453 kts 26°
2026-04-28 21:29 39.68508 18.37355 38078 ft 453 kts 26°
2026-04-28 21:30 39.73855 18.41643 37781 ft 452 kts 27°
2026-04-28 21:30 39.76514 18.43780 37471 ft 449 kts 27°
2026-04-28 21:30 39.79176 18.45922 37153 ft 446 kts 27°
2026-04-28 21:31 39.81793 18.48030 36855 ft 443 kts 27°
2026-04-28 21:31 39.84398 18.50128 36568 ft 442 kts 27°
2026-04-28 21:31 39.87019 18.52239 36271 ft 441 kts 27°
2026-04-28 21:31 39.89613 18.54331 36016 ft 441 kts 27°
2026-04-28 21:32 39.92194 18.56417 35794 ft 441 kts 27°
2026-04-28 21:32 39.94786 18.58511 35580 ft 440 kts 28°
2026-04-28 21:32 39.97420 18.60641 35349 ft 440 kts 28°
2026-04-28 21:32 39.99124 18.62023 35207 ft 440 kts 28°
2026-04-28 21:33 40.02609 18.64848 34909 ft 440 kts 28°
2026-04-28 21:33 40.04343 18.66254 34762 ft 440 kts 29°
2026-04-28 21:33 40.07788 18.69054 34323 ft 439 kts 30°
2026-04-28 21:33 40.10356 18.71141 33945 ft 434 kts 30°
2026-04-28 21:34 40.12924 18.73235 33599 ft 432 kts 30°
2026-04-28 21:34 40.15456 18.75299 33193 ft 429 kts 30°
2026-04-28 21:34 40.17973 18.77350 32786 ft 426 kts 30°
2026-04-28 21:34 40.20467 18.79386 32363 ft 423 kts 30°
2026-04-28 21:35 40.22943 18.81408 31957 ft 419 kts 30°
2026-04-28 21:35 40.25390 18.83410 31534 ft 415 kts 30°
2026-04-28 21:35 40.27825 18.85402 31118 ft 412 kts 30°
2026-04-28 21:35 40.30236 18.87377 30704 ft 409 kts 30°
2026-04-28 21:36 40.32629 18.89337 30291 ft 405 kts 30°
2026-04-28 21:36 40.35005 18.91286 29866 ft 402 kts 30°
2026-04-28 21:36 40.37367 18.93226 29412 ft 399 kts 30°
2026-04-28 21:36 40.39700 18.95143 28962 ft 396 kts 30°
2026-04-28 21:37 40.42018 18.97050 28517 ft 393 kts 30°
2026-04-28 21:37 40.44323 18.98948 28070 ft 390 kts 30°
2026-04-28 21:37 40.46601 19.00826 27614 ft 387 kts 30°
2026-04-28 21:37 40.48900 19.02719 27160 ft 384 kts 30°
2026-04-28 21:38 40.51119 19.04550 26724 ft 381 kts 30°
2026-04-28 21:38 40.53375 19.06412 26282 ft 378 kts 29°
2026-04-28 21:38 40.55566 19.08222 25842 ft 376 kts 30°
2026-04-28 21:38 40.57772 19.10047 25412 ft 373 kts 30°
2026-04-28 21:39 40.59982 19.11875 24967 ft 371 kts 29°
2026-04-28 21:39 40.62129 19.13654 24532 ft 369 kts 29°
2026-04-28 21:39 40.64289 19.15443 24098 ft 366 kts 29°
2026-04-28 21:39 40.66463 19.17247 23657 ft 364 kts 29°
2026-04-28 21:40 40.68587 19.19010 23224 ft 362 kts 29°
2026-04-28 21:40 40.70705 19.20767 22802 ft 360 kts 29°
2026-04-28 21:40 40.72809 19.22518 22384 ft 358 kts 29°
2026-04-28 21:40 40.74927 19.24280 21953 ft 356 kts 29°
2026-04-28 21:41 40.76315 19.25435 21671 ft 354 kts 29°
2026-04-28 21:41 40.79072 19.27732 21121 ft 351 kts 29°
2026-04-28 21:41 40.81108 19.29428 20710 ft 349 kts 29°
2026-04-28 21:41 40.83169 19.31149 20297 ft 347 kts 29°
2026-04-28 21:42 40.85191 19.32837 19881 ft 345 kts 29°
2026-04-28 21:42 40.87233 19.34544 19457 ft 343 kts 29°
2026-04-28 21:42 40.89230 19.36214 19052 ft 341 kts 29°
2026-04-28 21:42 40.90567 19.37332 18774 ft 340 kts 30°
2026-04-28 21:43 40.93208 19.39543 18242 ft 337 kts 30°
2026-04-28 21:43 40.95180 19.41197 17848 ft 335 kts 30°
2026-04-28 21:43 40.96489 19.42294 17581 ft 334 kts 30°
2026-04-28 21:43 40.99115 19.44497 17023 ft 332 kts 30°
2026-04-28 21:44 41.01051 19.46125 16621 ft 331 kts 30°
2026-04-28 21:44 41.02991 19.47756 16219 ft 329 kts 30°
2026-04-28 21:44 41.04911 19.49370 15808 ft 328 kts 30°
2026-04-28 21:44 41.06847 19.51000 15397 ft 326 kts 30°
2026-04-28 21:45 41.08752 19.52606 14999 ft 325 kts 30°
2026-04-28 21:45 41.10649 19.54206 14601 ft 323 kts 30°
2026-04-28 21:45 41.12548 19.55808 14194 ft 322 kts 30°
2026-04-28 21:45 41.14436 19.57402 13800 ft 321 kts 30°
2026-04-28 21:46 41.16349 19.58876 13382 ft 318 kts 20°
2026-04-28 21:46 41.18489 19.59544 12969 ft 314 kts
2026-04-28 21:46 41.20647 19.59402 12575 ft 311 kts 353°
2026-04-28 21:46 41.22779 19.59097 12185 ft 309 kts 352°
2026-04-28 21:47 41.24938 19.58776 11793 ft 308 kts 352°
2026-04-28 21:47 41.27058 19.58468 11406 ft 306 kts 352°
2026-04-28 21:47 41.29165 19.58168 11022 ft 305 kts 352°
2026-04-28 21:47 41.31262 19.57877 10633 ft 304 kts 353°
2026-04-28 21:48 41.33359 19.57589 10246 ft 303 kts 353°
2026-04-28 21:48 41.35424 19.57307 10063 ft 292 kts 353°
2026-04-28 21:48 41.36762 19.57126 9894 ft 288 kts 353°
2026-04-28 21:48 41.39422 19.56765 9401 ft 286 kts 353°
2026-04-28 21:49 41.40717 19.56590 9167 ft 285 kts 353°
2026-04-28 21:49 41.43338 19.56234 8695 ft 282 kts 353°
2026-04-28 21:49 41.45279 19.55971 8350 ft 279 kts 353°
2026-04-28 21:49 41.47201 19.55709 8001 ft 277 kts 353°
2026-04-28 21:50 41.49113 19.55449 7659 ft 275 kts 353°
2026-04-28 21:50 41.51002 19.55191 7319 ft 273 kts 353°
2026-04-28 21:50 41.52264 19.55019 7088 ft 272 kts 353°
2026-04-28 21:50 41.54762 19.54678 6627 ft 269 kts 353°
2026-04-28 21:51 41.56611 19.54428 6286 ft 267 kts 353°
2026-04-28 21:51 41.58445 19.54178 5957 ft 265 kts 353°
2026-04-28 21:51 41.60284 19.53932 5615 ft 263 kts 355°
2026-04-28 21:51 41.62069 19.54265 5234 ft 263 kts 24°
2026-04-28 21:52 41.63075 19.55191 5005 ft 263 kts 44°
2026-04-28 21:52 41.64128 19.58058 4554 ft 262 kts 81°
2026-04-28 21:52 41.64287 19.60457 4240 ft 260 kts 84°
2026-04-28 21:52 41.64386 19.62082 4045 ft 257 kts 84°
2026-04-28 21:53 41.64539 19.64398 3966 ft 244 kts 83°
2026-04-28 21:53 41.64188 19.67227 3908 ft 231 kts 122°
2026-04-28 21:53 41.63497 19.68293 3864 ft 231 kts 143°
2026-04-28 21:53 41.61553 19.69392 3634 ft 229 kts 169°
2026-04-28 21:54 41.60499 19.69603 3509 ft 228 kts 174°
2026-04-28 21:54 41.58367 19.69847 3137 ft 228 kts 176°
2026-04-28 21:54 41.56788 19.70021 2840 ft 227 kts 175°
2026-04-28 21:54 41.55214 19.70218 2543 ft 227 kts 174°
2026-04-28 21:55 41.54164 19.70358 2342 ft 226 kts 174°
2026-04-28 21:55 41.52142 19.70632 2048 ft 211 kts 174°
2026-04-28 21:55 41.51185 19.70761 1834 ft 200 kts 174°
2026-04-28 21:55 41.49855 19.70939 1568 ft 184 kts 174°
2026-04-28 21:56 41.48256 19.71151 1213 ft 163 kts 173°
2026-04-28 21:56 41.47522 19.71249 1056 ft 152 kts 173°
2026-04-28 21:56 41.46528 19.71381 850 ft 137 kts 173°
2026-04-28 21:56 41.45272 19.71549 637 ft 135 kts 172°
2026-04-28 21:57 41.44330 19.71675 467 ft 134 kts 172°
2026-04-28 21:57 41.43411 19.71802 295 ft 134 kts 172°
2026-04-28 21:57 41.42487 19.71921 132 ft 133 kts 172°
2026-04-28 21:57 41.41658 19.72034 122 ft 98 kts 175°
2026-04-28 21:58 41.41285 19.72081 126 ft 66 kts 176°
2026-04-28 21:58 41.40880 19.72131 129 ft 54 kts 174°
2026-04-28 21:58 41.40681 19.72121 130 ft 8 kts 274°
2026-04-28 21:58 41.40673 19.72045 130 ft 8 kts 256°
2026-04-28 21:59 41.40650 19.71926 130 ft 10 kts 256°
2026-04-28 21:59 41.40634 19.71831 130 ft 9 kts 266°
2026-04-28 21:59 41.40656 19.71787 129 ft 9 kts 327°
2026-04-28 22:00 41.40806 19.71749 128 ft 12 kts 350°
2026-04-28 22:00 41.40926 19.71725 128 ft 13 kts 353°
2026-04-28 22:00 41.41024 19.71709 127 ft 14 kts 353°
2026-04-28 22:00 41.41131 19.71691 126 ft 16 kts 353°
2026-04-28 22:01 41.41246 19.71675 125 ft 17 kts 355°
2026-04-28 22:01 41.41327 19.71668 125 ft 17 kts 356°
2026-04-28 22:01 41.41496 19.71646 123 ft 18 kts 354°
2026-04-28 22:01 41.41627 19.71626 122 ft 19 kts 354°
2026-04-28 22:02 41.41765 19.71608 120 ft 20 kts 354°
2026-04-28 22:02 41.41855 19.71596 119 ft 6 kts 354°
2026-04-28 22:02 41.41887 19.71591 119 ft 7 kts 355°
2026-04-28 22:02 41.41952 19.71569 118 ft 7 kts 311°
2026-04-28 22:03 41.41951 19.71530 118 ft 2 kts 261°
2026-04-28 22:03 41.41950 19.71520 118 ft 0 kts 262°